Location: Kuffner-Sternwarte
(48.2130°N, 16.2960°E)
Time: 04:52:09
(UTC+02:00)

COROT - Pass Details

Date: 25 May 2017
Orbit: 602 x 888 km, 90.0° (Epoch: 26 July)

Event Time Altitude Azimuth Distance (km) Brightness Sun altitude
Rises 23:12:06 0° 345° (NNW) 3,152 10.9 -17.2°
Reaches altitude 10° 23:15:53 10° 315° (NW) 2,153 9.4 -17.4°
Maximum altitude 23:17:39 12° 293° (WNW) 1,982 8.8 -17.5°
Drops below altitude 10° 23:19:23 10° 271° (W) 2,086 8.5 -17.7°
Sets 23:22:55 0° 240° (WSW) 2,935 9.0 -17.9°
